Change the Weather History Date:

Sunday, March 2, 2014

  Actual Average Record
Temperature  
Mean Temperature 45 °F 40 °F  
Max Temperature 57 °F 53 °F 75 °F (1986)
Min Temperature 33 °F 28 °F 10 °F (2002)
Degree Days  
Heating Degree Days 20 25  
Month to date heating degree days 35 50  
Since 1 July heating degree days 4783 4459  
Cooling Degree Days 0 0  
Month to date cooling degree days 0 0  
Year to date cooling degree days 0 0  
Moisture  
Dew Point 32 °F    
Average Humidity 60    
Maximum Humidity 92    
Minimum Humidity 27    
Precipitation  
Precipitation 0.00 in 0.02 in 0.33 in (1941)
Month to date precipitation 0.30 0.04  
Year to date precipitation 0.63 1.20  
Sea Level Pressure  
Sea Level Pressure 29.93 in    
Wind  
Wind Speed 5 mph (WNW)    
Max Wind Speed 14 mph    
Max Gust Speed 18 mph    
Visibility 10 miles    
Events      
T = Trace of Precipitation, MM = Missing Value Source: NWS Daily Summary

Daily Weather History Graph

Daily Weather History Graph

Search for Another Location

Airport or City:

Trip Planner

Search our weather history database for the weather conditions in past years. The results will help you decide how hot, cold, wet, or windy it might be!

Date:

Astronomy

Mar. 02, 2014 Rise Set
Actual Time 6:49 AM MST 6:13 PM MST
Civil Twilight 6:23 AM MST 6:39 PM MST
Nautical Twilight 5:52 AM MST 7:10 PM MST
Astronomical Twilight 5:21 AM MST 7:41 PM MST
Moon 7:24 AM MST (3/2) 8:11 PM MST (3/2)
Length of Visible Light 12h 16m
Length of Day
11h 23m
Waxing Crescent, 3% of the Moon is Illuminated
Mar 2
Waxing Crescent
Mar 8
First Quarter
Mar 16
Full
Mar 23
Last Quarter
Mar 30
New

Hourly Weather History & Observations

Time (MST) Temp. Windchill Dew Point Humidity Pressure Visibility Wind Dir Wind Speed Gust Speed Precip Events Conditions
12:53 AM 42.1 °F 39.2 °F 36.0 °F 79% 29.79 in 10.0 mi West 4.6 mph - N/A   Overcast
1:53 AM 42.1 °F 37.1 °F 36.0 °F 79% 29.79 in 10.0 mi NNW 8.1 mph - N/A   Mostly Cloudy
2:53 AM 39.0 °F 36.8 °F 36.0 °F 89% 29.80 in 10.0 mi West 3.5 mph - N/A   Overcast
3:53 AM 41.0 °F 35.8 °F 34.0 °F 76% 29.80 in 10.0 mi WNW 8.1 mph - N/A   Overcast
4:53 AM 37.0 °F 31.0 °F 33.1 °F 86% 29.85 in 10.0 mi NW 8.1 mph - N/A   Partly Cloudy
5:53 AM 35.1 °F 27.4 °F 33.1 °F 92% 29.88 in 10.0 mi NW 10.4 mph - N/A   Clear
6:53 AM 33.1 °F - 30.9 °F 92% 29.92 in 10.0 mi Calm Calm - N/A   Clear
7:53 AM 39.0 °F - 33.1 °F 79% 29.95 in 10.0 mi Calm Calm - N/A   Clear
8:53 AM 43.0 °F 41.3 °F 35.1 °F 74% 29.97 in 10.0 mi ENE 3.5 mph - N/A   Clear
9:53 AM 46.9 °F - 37.0 °F 68% 29.96 in 10.0 mi ESE 3.5 mph - N/A   Clear
10:53 AM 50.0 °F - 30.9 °F 48% 29.96 in 10.0 mi West 5.8 mph - N/A   Clear
11:53 AM 52.0 °F - 30.0 °F 43% 29.97 in 10.0 mi North - - N/A   Clear
12:53 PM 53.1 °F - 28.9 °F 40% 29.95 in 10.0 mi WSW 8.1 mph - N/A   Clear
1:53 PM 55.0 °F - 24.1 °F 30% 29.92 in 10.0 mi West 9.2 mph - N/A   Clear
2:53 PM 55.0 °F - 25.0 °F 31% 29.94 in 10.0 mi West 11.5 mph - N/A   Clear
3:53 PM 55.9 °F - 25.0 °F 30% 29.93 in 10.0 mi West 9.2 mph - N/A   Clear
4:53 PM 55.9 °F - 23.0 °F 28% 29.94 in 10.0 mi North 3.5 mph - N/A   Clear
5:53 PM 53.1 °F - 30.0 °F 41% 29.97 in 10.0 mi Calm Calm - N/A   Clear
6:53 PM 46.0 °F 44.8 °F 36.0 °F 68% 30.01 in 10.0 mi SW 3.5 mph - N/A   Clear
7:53 PM 46.0 °F 44.8 °F 32.0 °F 58% 30.01 in 10.0 mi WSW 3.5 mph - N/A   Clear
8:53 PM 43.0 °F 40.3 °F 33.1 °F 68% 30.03 in 10.0 mi SW 4.6 mph - N/A   Clear
9:53 PM 46.0 °F - 30.0 °F 54% 30.01 in 10.0 mi Calm Calm - N/A   Clear
10:53 PM 44.1 °F - 34.0 °F 68% 30.02 in 10.0 mi Calm Calm - N/A   Scattered Clouds
11:53 PM 45.0 °F 43.5 °F 34.0 °F 65% 30.00 in 10.0 mi North 3.5 mph - N/A   Overcast